Location: College Rock
(37.2713°N, 119.1740°W)
Time: 05:03:32
(UTC+00:00)

Meteor 2-10 Rocket - Pass Details

Date: 29 October 2020
Orbit: 733 x 885 km, 81.2° (Epoch: 27 November)

Event Time Altitude Azimuth Distance (km) Brightness Sun altitude
Rises 13:11:08 0° 353° (N) 3,171 6.6 -14.0°
Reaches altitude 10° 13:13:28 10° 356° (N) 2,251 5.8 -13.5°
Maximum altitude 13:18:29 69° 80° (E) 801 3.8 -12.6°
Drops below altitude 10° 13:23:36 10° 164° (SSE) 2,296 6.3 -11.5°
Sets 13:25:59 0° 167° (SSE) 3,239 7.1 -11.1°
